DateTimeUTC,F1_A11,F1_S11,BsB_S11,BsG_S11,BsR_S11,BbsB_S11,BbsG_S11,BbsR_S11,BaB_A11,BaG_A11,BaR_A11,Tu_S11,T_S11,Uu_S11,U_S11,P_S11,T1_A11
2021-03-05T17:00:00Z,00000200,21000000,,,,,,,0000.28,-000.37,-000.21,17.5,24.7,00.6,00.4,0658.1,30.9
2021-03-05T17:01:00Z,00000200,21000000,,,,,,,-000.19,-000.38,-000.09,17.5,24.7,00.6,00.4,0658.1,30.9
2021-03-05T17:02:00Z,00000200,21000000,,,,,,,0000.01,0000.06,0000.12,17.5,24.7,00.6,00.4,0658.1,30.9
2021-03-05T17:03:00Z,00000200,61000000,,,,,,,0000.31,0000.04,0000.02,17.5,24.7,00.6,00.4,0658.2,30.9
2021-03-05T17:04:00Z,00000200,41000000,0000.30,0000.22,0000.13,0000.56,0000.03,0000.21,-000.06,0000.54,0000.12,17.6,24.5,00.7,00.5,0659.0,30.9
2021-03-05T17:05:00Z,00000200,01000000,0000.72,0000.62,0000.41,0000.38,-000.08,0000.14,0000.24,-000.04,0000.03,17.6,24.5,00.7,00.5,0659.1,30.9
2021-03-05T17:06:00Z,00000200,01000000,0000.04,0000.69,0000.15,-000.11,0000.01,0000.10,-000.20,0000.03,0000.16,17.6,24.5,00.6,00.4,0659.1,30.9
2021-03-05T17:07:00Z,00000200,01000000,0000.46,0000.09,0000.44,0000.15,0000.01,0000.39,0000.82,0000.47,0000.51,17.6,24.4,00.6,00.4,0659.1,31.0
2021-03-05T17:08:00Z,00000200,01000000,0000.17,0000.32,0000.38,0000.06,-000.11,0000.12,0000.35,0000.47,0000.37,17.6,24.4,00.7,00.5,0659.1,30.9
2021-03-05T17:09:00Z,00000200,01000000,0000.07,0000.46,0000.46,-000.23,-000.02,0000.20,0000.11,0000.38,0000.08,17.6,24.4,00.6,00.4,0659.1,30.9
2021-03-05T17:10:00Z,00000200,01000000,0000.30,0000.45,0000.39,0000.21,0000.08,0000.04,0000.49,0000.40,0000.16,17.6,24.4,00.9,00.6,0659.1,30.9
2021-03-05T17:11:00Z,00000200,01000000,0000.71,0000.68,0000.25,0000.02,0000.16,0000.09,0000.17,-000.23,0000.09,17.6,24.4,00.9,00.6,0659.0,30.9
2021-03-05T17:12:00Z,00000200,01000000,0000.67,0000.62,0000.42,-000.24,0000.20,0000.03,0000.46,0000.45,0000.29,17.6,24.4,01.0,00.7,0659.0,30.9
2021-03-05T17:13:00Z,00000200,01000000,0000.81,0000.61,0000.36,0000.25,0000.07,0000.08,0000.31,0000.19,0000.04,17.6,24.4,01.0,00.7,0659.0,30.9
2021-03-05T17:14:00Z,00000200,01000000,0000.43,0000.43,0000.50,-000.09,0000.05,0000.15,-000.05,0000.17,-000.12,17.6,24.4,00.9,00.6,0659.0,30.9
2021-03-05T17:15:00Z,00000200,01000000,0000.72,0000.16,0000.45,0000.12,0000.14,0000.15,-000.02,0000.09,0000.05,17.6,24.4,00.6,00.4,0659.0,30.9
2021-03-05T17:16:00Z,00000200,01000000,-000.02,0000.41,0000.30,0000.15,-000.03,-000.03,0000.52,0000.21,0000.73,17.7,24.4,00.7,00.5,0659.0,31.0
2021-03-05T17:17:00Z,00000200,01000000,0000.11,0000.51,0000.32,0000.40,0000.26,0000.16,0000.20,-000.01,-000.31,17.8,24.4,00.7,00.5,0659.0,31.0
2021-03-05T17:18:00Z,00000200,01000000,0000.28,0000.39,0000.58,0000.06,0000.07,0000.34,0000.63,0000.76,0000.54,17.9,24.5,00.7,00.4,0659.0,31.0
2021-03-05T17:19:00Z,00000200,01000000,0000.61,0000.72,0000.37,0000.05,0000.06,0000.00,0000.22,0000.40,0000.25,17.9,24.5,00.8,00.5,0659.0,31.0
2021-03-05T17:20:00Z,00000200,01000000,0000.33,0000.49,0000.77,0000.55,0000.11,0000.28,0000.25,0000.25,0000.61,17.9,24.5,00.7,00.5,0658.9,31.0
2021-03-05T17:21:00Z,00000200,01000000,0000.97,0000.53,0000.78,-000.48,-000.04,0000.14,0000.67,0000.64,-000.00,17.9,24.5,00.9,00.6,0658.9,31.0
2021-03-05T17:22:00Z,00000200,01000000,0000.28,0000.56,0000.54,-000.02,0000.05,0000.42,0000.64,0000.50,0000.37,17.9,24.5,00.9,00.6,0658.9,31.0
2021-03-05T17:23:00Z,00000200,01000000,0000.91,0000.50,0000.33,-000.16,-000.04,0000.21,0000.51,0000.28,0000.37,17.9,24.5,01.0,00.7,0658.9,31.0
2021-03-05T17:24:00Z,00000200,01000000,0000.32,0000.56,0000.34,0000.37,0000.27,-000.04,0000.52,0000.54,0000.50,17.9,24.5,01.0,00.7,0658.9,31.0
2021-03-05T17:25:00Z,00000200,01000000,0000.34,0000.74,0000.54,0000.28,0000.24,0000.05,0000.45,0000.42,0000.24,17.9,24.5,01.1,00.7,0658.9,31.0
2021-03-05T17:26:00Z,00000200,01000000,0000.71,0000.79,0000.47,-000.13,0000.08,0000.04,0000.42,0000.71,0000.41,17.9,24.5,01.1,00.8,0658.8,31.0
2021-03-05T17:27:00Z,00000200,01000000,0001.00,0000.47,0000.50,0000.25,0000.04,0000.24,0000.73,0000.45,0000.22,17.9,24.5,01.3,00.8,0658.8,30.9
2021-03-05T17:28:00Z,00000200,01000000,0000.54,0000.54,0000.58,0000.17,0000.02,0000.39,0000.38,0000.38,0000.54,17.9,24.5,01.3,00.9,0658.8,31.0
2021-03-05T17:29:00Z,00000200,01000000,0000.65,0000.63,0000.34,0000.17,0000.10,-000.08,0000.25,0000.22,0000.22,17.9,24.5,01.3,00.9,0658.8,30.9
2021-03-05T17:30:00Z,00000200,01000000,0001.21,0000.59,0000.30,-000.03,0000.14,0000.04,0000.80,0000.59,0000.27,17.8,24.5,01.3,00.9,0658.8,30.9
2021-03-05T17:31:00Z,00000200,01000000,0000.54,0000.67,0000.51,0000.68,0000.13,0000.30,0000.29,0000.17,0000.41,17.8,24.5,01.4,00.9,0658.8,30.9
2021-03-05T17:32:00Z,00000200,01000000,0000.61,0000.78,0000.48,0000.38,0000.07,-000.06,0000.44,0000.64,-000.09,17.8,24.5,01.4,00.9,0658.8,30.9
2021-03-05T17:33:00Z,00000200,01000000,0001.01,0000.73,0000.52,0000.60,-000.01,0000.01,0000.15,-000.02,0000.38,17.8,24.5,01.4,00.9,0658.7,31.0
2021-03-05T17:34:00Z,00000200,01000000,0000.95,0000.72,0000.48,-000.00,0000.14,0000.32,0000.65,0000.38,0000.32,17.8,24.5,01.4,00.9,0658.7,31.0
2021-03-05T17:35:00Z,00000200,01000000,0000.26,0000.76,0000.58,-000.14,-000.04,0000.19,0000.97,0000.86,0000.86,17.8,24.5,01.5,01.0,0658.6,30.9
2021-03-05T17:36:00Z,00000200,01000000,0001.22,0000.86,0000.30,0000.02,0000.00,0000.22,0000.14,0000.33,0000.02,17.8,24.5,01.5,01.0,0658.6,30.9
2021-03-05T17:37:00Z,00000200,01000000,0001.35,0000.42,0000.55,-000.01,-000.05,0000.15,0000.90,0000.76,0000.53,17.8,24.5,01.5,01.0,0658.6,30.9
2021-03-05T17:38:00Z,00000200,01000000,0000.44,0000.85,0000.54,0000.20,0000.10,0000.27,0000.56,0000.38,0000.37,17.8,24.4,01.6,01.1,0658.6,30.9
2021-03-05T17:39:00Z,00000200,01000000,0000.65,0000.81,0000.78,0000.07,-000.03,0000.14,0000.48,0000.33,0000.33,17.8,24.5,01.5,01.0,0658.7,30.9
2021-03-05T17:40:00Z,00000200,01000000,0000.77,0000.56,0000.51,0000.23,0000.08,0000.18,0000.27,0000.29,0000.06,17.8,24.5,01.5,01.0,0658.7,30.9
2021-03-05T17:41:00Z,00000200,01000000,0000.73,0000.56,0000.44,0000.09,0000.21,0000.32,0000.37,0000.59,0000.45,17.8,24.5,01.5,01.0,0658.8,30.9
2021-03-05T17:42:00Z,00000200,01000000,0000.63,0000.56,0000.45,0000.33,0000.05,0000.29,0000.33,-000.00,0000.26,17.7,24.4,01.5,01.0,0658.8,30.9
2021-03-05T17:43:00Z,00000200,01000000,0000.59,0000.66,0000.50,-000.24,0000.06,0000.08,0000.12,0000.65,0000.30,17.7,24.4,01.4,00.9,0658.7,30.9
2021-03-05T17:44:00Z,00000200,01000000,0000.46,0000.53,0000.43,0000.15,0000.11,-000.05,0000.71,0000.15,0000.04,17.7,24.5,01.5,01.0,0658.7,30.9
2021-03-05T17:45:00Z,00000200,01000000,0000.90,0000.75,0000.59,-000.12,0000.05,0000.56,0000.26,0000.50,0000.58,17.7,24.4,01.5,01.0,0658.7,30.9
2021-03-05T17:46:00Z,00000200,01000000,0000.80,0000.33,0000.34,0000.27,0000.10,0000.03,0000.32,0000.53,0000.25,17.7,24.4,01.5,01.0,0658.8,30.9
2021-03-05T17:47:00Z,00000200,01000000,0000.80,0000.65,0000.53,0000.09,0000.16,0000.44,0000.65,0000.09,0000.21,17.8,24.4,01.5,01.0,0658.8,31.0
2021-03-05T17:48:00Z,00000200,01000000,0000.72,0000.81,0000.61,0000.55,0000.08,0000.25,0000.31,0000.42,0000.20,17.9,24.5,01.4,01.0,0658.8,31.0
2021-03-05T17:49:00Z,00000200,01000000,0000.14,0000.43,0000.58,-000.07,0000.08,0000.21,0000.41,0000.46,0000.19,18.0,24.5,01.4,01.0,0658.8,31.0
2021-03-05T17:50:00Z,00000200,01000000,0000.58,0000.55,0000.68,-000.25,0000.08,0000.16,0000.53,0000.24,0000.19,18.0,24.6,01.4,00.9,0658.7,31.0
2021-03-05T17:51:00Z,00000200,01000000,0000.72,0000.84,0000.61,0000.26,-000.19,0000.12,-000.05,0000.62,0000.45,18.1,24.6,01.4,01.0,0658.7,31.0
2021-03-05T17:52:00Z,00000200,01000000,0000.85,0000.68,0000.43,0000.37,0000.09,0000.20,0000.66,0000.22,0000.13,18.1,24.6,01.4,00.9,0658.8,31.0
2021-03-05T17:53:00Z,00000200,01000000,0000.24,0000.53,0000.24,0000.13,-000.04,0000.42,0000.81,0000.43,0000.46,18.1,24.6,01.4,01.0,0658.8,31.0
2021-03-05T17:54:00Z,00000200,01000000,0000.86,0000.54,0000.69,0000.40,0000.15,-000.01,-000.10,0000.36,0000.08,18.1,24.6,01.3,00.9,0658.8,31.0
2021-03-05T17:55:00Z,00000200,01000000,0000.35,0000.51,0000.70,-000.46,0000.05,-000.01,0000.37,0000.21,0000.30,18.1,24.6,01.4,00.9,0658.8,31.0
2021-03-05T17:56:00Z,00000200,01000000,0000.81,0000.41,0000.29,0000.46,-000.03,0000.09,0000.30,0000.41,0000.53,18.0,24.6,01.3,00.9,0658.8,31.0
2021-03-05T17:57:00Z,00000200,40000000,,,,,,,0000.39,0000.24,-000.18,18.1,24.6,01.5,01.0,0658.8,31.0
2021-03-05T17:58:00Z,00000200,61000000,,,,,,,-000.27,-000.73,-000.26,17.8,24.7,01.2,00.8,0657.9,31.0
2021-03-05T17:59:00Z,00000200,21000000,,,,,,,0000.37,0000.59,0000.40,17.8,24.8,01.1,00.7,0657.9,31.0
